CAPE
0 0 0 0 0 0 0 0 0 0 0 0 0 0 0 0 0 0 0 0 0 0 0 0 0 0 0 0 0 0 0 0 0 0 0 0 0 0 976 970 549 637 1216 1154 1933 1687 1995 1514 1560 1990 1525 1309 758 1047 1133 1017 967 1219 798 899 749 1017 933 1058 1066 836 687 639 440 666 904 931 754 324 405 635 924 716 1068 1232 972 1422 1698 1536 1662 1471
0 0 0 0 0 0 0 0 0 0 0 0 0 0 0 0 0 0 0 0 2 1 0 0 0 0 0 0 0 5 3 1 0 0 0 0 0 0 429 756 720 854 1151 1373 1951 1702 1556 1266 1956 1272 653 1015 736 983 917 865 958 646 944 623 563 694 786 815 784 560 609 591 354 572 584 490 262 308 336 292 532 1136 1365 1493 1534 1696 1673 1940 1828 1780
0 0 0 0 0 0 0 0 0 0 0 0 0 0 0 0 0 0 0 0 4 0 1 0 0 0 0 0 0 0 15 3 0 0 0 0 0 0 543 462 672 959 686 1068 2007 1814 1686 1116 1086 1322 1092 759 679 1197 1287 1133 970 773 687 715 634 652 630 484 459 798 722 725 576 1183 1201 699 371 347 490 146 176 566 939 1372 1321 1606 1588 1785 1686 1777
0 0 0 0 0 0 0 0 0 0 0 0 0 0 0 0 0 0 0 0 10 2 0 3 0 0 0 0 0 0 0 2 0 0 0 0 0 11 297 588 599 473 1010 775 1351 1773 1086 958 1116 1186 1097 980 833 983 1330 909 970 695 846 863 1368 1336 1259 678 500 665 1283 1623 1935 1043 448 525 402 224 556 682 668 520 388 704 987 1269 1323 1268 1171 944
0 0 0 0 0 0 0 0 0 0 0 0 0 0 0 0 0 0 3 21 27 0 0 0 0 0 0 0 0 0 0 0 0 0 0 0 0 0 1064 948 917 856 1240 1072 1322 759 768 874 1203 1144 1167 1141 922 775 886 735 912 876 714 862 1055 952 863 899 876 1055 1180 1766 1336 1094 733 406 514 615 717 822 746 469 314 766 920 769 966 847 738 922
0 5 12 0 0 0 0 0 0 0 0 0 0 0 0 0 0 0 13 1 9 8 0 0 0 0 0 0 0 0 0 0 0 0 0 0 0 102 920 1316 1270 1055 952 834 584 350 603 1229 1348 1140 1053 734 688 698 567 643 909 780 694 598 436 507 746 937 660 550 875 1586 1278 1114 882 788 734 960 1146 624 535 442 830 173 617 495 501 426 777 759
8 1 0 0 0 2 0 0 0 0 0 0 0 0 0 0 0 0 3 6 2 5 3 0 0 0 0 0 0 0 0 0 0 0 0 0 0 379 926 1231 1022 902 977 513 161 345 530 927 1082 838 847 772 851 870 778 796 755 712 607 401 427 596 947 809 628 666 884 1538 1274 1252 1180 1300 1232 808 657 736 929 720 155 803 608 456 783 482 548 573
0 0 0 0 0 0 0 0 0 0 0 0 0 0 0 0 0 0 0 2 12 0 0 0 0 0 0 0 0 0 0 0 0 0 0 0 969 1451 895 902 855 709 550 600 654 859 802 987 1120 1012 883 970 954 962 779 775 646 659 663 587 645 978 1108 570 568 609 1214 1608 1567 1568 1422 1377 978 860 705 753 296 514 362 394 233 222 111 174 128 484
0 0 0 0 3 0 0 0 0 0 0 0 0 0 0 0 0 0 0 4 1 0 0 0 0 0 0 0 0 0 0 0 0 0 0 0 991 1389 1241 976 567 499 308 682 882 973 681 974 1030 1200 1039 955 989 959 916 857 1052 890 988 877 776 838 689 742 903 1007 1296 1387 1339 1240 1096 1138 778 558 428 151 266 430 430 249 258 292 117 313 834 339
0 0 0 0 0 0 0 0 0 0 0 0 0 0 0 0 0 0 0 0 0 0 0 0 25 0 0 0 0 0 0 0 0 0 0 0 1349 807 780 980 948 261 252 542 1121 741 898 899 1140 1160 1079 1087 1156 1232 1126 1187 1222 1245 1527 1637 1512 1370 1558 1523 1758 1678 1379 1344 1310 1484 1184 1168 549 578 646 195 384 364 446 134 78 105 404 212 359 698
2 0 0 0 0 0 0 0 0 0 0 0 0 0 0 0 0 0 0 1 0 0 0 0 1 7 29 4 0 0 0 5 0 0 0 10 853 971 880 847 383 529 703 610 803 967 934 975 1103 1220 1331 1251 1276 1254 1259 1376 1576 1803 1952 2076 2097 2138 2246 2343 1837 1308 1163 1282 1438 865 987 698 764 722 466 209 278 244 519 211 155 617 427 891 452 315
0 1 0 0 0 0 0 0 0 0 0 0 0 0 0 0 0 0 0 0 0 0 0 0 0 53 28 5 0 2 0 178 166 0 0 0 1306 951 797 621 507 595 543 730 792 895 1059 1061 928 1044 1175 1155 1198 1378 1413 1428 1446 1586 1788 1816 1733 1827 2088 2225 2069 1723 1423 1263 1093 920 836 805 660 636 484 323 400 162 195 141 290 240 380 488 258 954
0 0 0 0 0 0 0 0 0 0 0 0 0 0 0 4 0 0 0 0 0 0 0 0 2 38 12 181 130 1 0 34 320 340 0 5 144 409 283 418 879 952 740 1037 858 815 1003 882 840 1174 1256 1097 1116 1356 1415 1308 1352 1549 1547 1478 1548 1670 1846 2066 2170 1903 1464 1153 942 956 986 807 862 622 589 347 246 361 232 288 229 31 244 124 424 353
0 0 0 0 0 0 0 0 1 0 0 0 0 0 0 2 0 0 0 0 0 0 0 36 4 65 96 33 134 228 381 498 413 399 417 276 623 536 458 622 843 846 744 883 854 741 1080 1356 1163 1267 1188 1222 998 1152 1338 1258 1278 1245 1333 1262 1334 1429 1641 1804 1908 1974 1699 1380 998 922 859 777 573 837 716 432 212 311 366 381 80 214 133 420 534 360
2 0 0 0 0 0 0 0 0 0 0 0 0 0 0 0 0 0 0 6 0 0 30 2 56 576 6 58 268 243 170 261 308 216 388 653 715 746 622 634 1003 820 529 684 753 713 888 1388 1106 1089 1096 1212 1149 881 1139 1323 1488 1682 1360 1288 1176 1215 1438 1669 1747 1804 1828 1684 1306 1130 1143 1035 1052 981 991 933 424 488 201 156 113 676 519 655 398 496
0 0 0 0 0 0 0 0 0 0 0 0 0 0 0 32 0 2 198 2 4 1 0 38 23 432 439 156 99 265 168 104 145 107 63 90 133 152 338 485 547 943 683 576 716 580 734 1469 1038 1036 1114 1321 1231 1050 1142 1290 1468 1526 1682 1700 1384 1164 1256 1456 1478 1630 1741 1722 1640 1700 1538 1535 1236 895 966 427 334 470 483 384 420 648 690 467 194 161
0 4 1 0 0 0 0 0 0 0 0 0 0 0 0 3 0 22 6 13 64 0 0 1 116 199 278 75 161 103 15 98 99 82 150 374 298 248 186 98 503 753 988 812 540 618 919 1706 1374 1137 1162 1302 1204 970 911 1088 1221 1505 1567 1704 1540 1189 1123 1153 1319 1558 1644 1584 1565 1645 1580 1384 1272 1144 738 353 406 364 332 384 586 735 428 200 114 38
0 7 10 4 0 0 0 0 0 0 0 0 0 0 0 0 174 1 0 0 0 0 68 40 56 77 8 48 2 39 49 194 206 323 758 482 505 704 758 932 795 995 977 962 760 654 1057 1352 1272 1199 1106 1011 941 1025 872 1017 1211 1400 1322 1391 1321 1155 1041 1129 1297 1397 1376 1392 1567 1651 1733 1592 1342 1064 679 405 336 412 665 686 524 326 208 125 62 26
0 0 3 4 2 0 0 0 0 0 0 0 0 36 0 32 0 19 0 1 2 0 0 0 17 14 7 170 0 85 56 165 132 336 609 642 613 553 587 758 660 650 650 934 760 746 844 1193 1223 1097 1174 967 740 646 916 1058 1234 1463 1410 1269 1163 1072 1025 1090 1154 1138 1184 1269 1425 1535 1644 1390 1177 1071 659 501 460 533 624 589 363 225 220 98 3 2
1 2 24 5 12 0 0 0 0 0 0 0 0 0 0 0 8 23 4 9 5 40 2 0 6 57 178 419 453 262 36 47 248 194 337 467 358 478 516 537 581 525 686 880 623 815 371 323 609 588 812 1006 1208 968 1162 1174 1244 1348 1415 1350 1214 1208 1067 944 947 1036 1242 1420 1458 1505 1457 1151 1125 871 504 318 215 156 141 203 258 246 139 36 0 0
11 21 6 177 0 6 0 0 0 0 0 0 0 0 8 12 222 0 124 0 11 4 26 1 47 203 336 379 472 274 190 302 357 354 349 356 450 360 523 460 516 610 623 462 358 535 333 305 317 445 596 785 1033 1218 1144 1215 1225 1170 1156 1307 1245 1245 1011 1056 1010 958 1240 1404 1322 1403 1572 1416 1386 922 264 177 100 18 11 21 116 301 130 1 1 0
0 12 16 41 1 0 0 0 0 0 0 0 0 0 15 64 54 0 2 2 9 0 0 17 66 107 158 419 446 553 420 532 564 384 365 411 316 336 88 383 469 239 359 343 235 365 586 488 611 756 647 838 873 947 1216 1337 1169 1017 924 1000 1118 959 958 1077 1022 1065 1226 1304 1358 1343 1502 1404 1230 625 209 236 177 54 39 9 52 162 39 9 6 0
327 22 23 15 22 52 43 10 0 0 0 0 0 0 0 0 0 10 2 6 10 31 1 380 308 250 174 359 278 257 249 155 426 544 516 373 270 194 179 168 203 249 211 229 627 476 641 644 522 413 530 677 715 779 1009 1243 1133 1048 932 914 1001 944 905 946 1034 1058 1176 1250 1462 1542 1530 1293 1002 668 375 492 384 182 20 35 42 0 21 18 23 0
342 7 11 3 0 3 7 2 0 0 1 0 0 0 1 0 0 0 0 21 0 1 3 16 98 122 134 261 507 544 210 86 236 318 364 253 338 250 151 218 258 327 549 373 451 377 402 456 646 820 893 926 796 832 950 1064 1009 1154 1171 1026 956 1040 992 971 1060 1064 1050 1210 1420 1404 1317 1088 959 840 530 533 456 438 378 211 175 14 1 3 0 0
1 311 4 60 19 6 50 7 0 0 0 0 0 1 0 0 1 8 14 78 13 0 0 7 207 0 38 92 376 267 220 183 134 80 57 221 351 260 126 91 36 47 428 601 474 396 500 639 601 728 786 738 620 863 1071 1050 991 955 884 799 816 923 919 985 1082 916 871 959 1273 1262 1238 1124 873 892 832 805 374 407 749 757 512 385 12 15 7 0
0 16 41 8 13 5 5 14 9 0 0 0 0 0 0 0 31 22 0 46 1 2 0 1 153 361 52 295 346 184 153 57 158 100 32 62 64 48 108 33 224 49 103 266 440 448 424 552 516 635 641 663 733 777 931 972 902 882 802 948 1004 775 1004 792 1074 1024 1229 1197 1141 1175 1269 1111 762 769 733 717 622 627 808 706 538 476 198 6 0 33
0 0 14 102 26 20 16 0 0 0 0 0 4 0 1 0 0 0 8 3 0 309 126 121 203 292 449 338 232 186 124 136 24 144 12 43 21 8 26 27 11 26 26 157 279 406 336 339 352 476 638 650 719 767 730 699 818 935 940 1084 944 987 995 1105 1278 1274 1256 1205 1130 1037 1050 942 853 857 703 740 677 685 754 777 603 471 337 81 37 51
0 0 66 6 1 1 0 0 0 0 0 0 0 2 0 100 0 2 1 5 20 7 65 220 489 474 263 263 262 133 113 57 80 22 52 11 45 36 4 3 0 4 8 36 95 106 193 179 253 483 409 506 596 636 625 696 728 712 676 664 676 853 1127 963 1210 1190 1178 1327 1290 1117 1109 1205 1143 1110 968 848 860 725 715 773 690 552 464 433 255 80
0 0 22 2 1 0 0 3 0 0 0 0 0 0 4 3 42 462 378 0 1 48 116 283 452 298 156 213 118 116 160 25 13 1 13 3 2 0 0 0 0 0 2 14 0 0 0 135 139 185 173 232 339 567 562 549 422 449 240 382 482 501 615 563 588 880 1141 1212 1279 1264 1260 1335 1180 1201 1207 906 931 933 977 887 906 781 582 605 596 623
3 4 13 4 15 0 0 0 0 0 0 0 0 0 3 103 282 448 531 459 338 169 284 382 410 246 128 75 32 21 20 16 3 2 3 3 0 0 0 0 0 0 2 0 0 0 0 0 0 0 25 120 238 125 100 266 354 511 405 361 315 367 296 492 443 475 641 777 890 1044 871 1078 1183 1155 1050 946 1006 900 1062 994 1023 1017 740 644 544 589
0 13 4 2 9 9 5 0 0 0 0 0 0 0 0 11 56 46 89 134 188 563 434 77 16 9 3 6 2 0 0 0 2 4 2 1 0 0 0 0 0 14 14 188 93 0 0 0 0 0 0 0 0 2 1 443 183 31 22 128 274 338 307 310 371 328 281 738 878 1045 1008 1110 1031 927 934 982 1175 1266 910 793 1043 1190 900 800 804 734
0 14 0 1 6 0 0 1 0 0 0 0 0 0 0 0 23 60 156 390 238 415 146 280 15 0 0 0 0 0 0 0 0 0 0 0 0 0 0 0 1 71 197 228 222 200 153 132 0 0 0 0 0 0 0 0 0 0 0 4 86 85 170 290 329 316 369 358 595 676 913 990 871 747 816 977 1066 959 792 1041 749 922 1058 1148 1093 1043
422 20 17 0 11 9 2 0 0 0 0 0 0 0 0 0 1 24 152 278 393 325 273 165 38 0 0 0 0 0 0 2 0 0 0 0 0 0 0 0 0 98 148 160 176 170 132 156 0 0 0 0 0 0 0 0 0 0 3 6 0 10 5 16 310 356 219 252 201 329 690 652 624 774 918 778 741 596 958 758 691 852 884 975 1310 1317
93 4 31 38 2 8 0 0 0 0 1 7 155 6 18 1 2 36 69 17 69 61 51 7 20 0 0 0 0 0 0 3 1 0 0 0 0 0 0 0 11 41 102 116 129 128 114 16 0 0 0 0 0 0 0 0 0 0 0 0 0 0 0 0 1 13 0 46 154 169 247 379 437 490 567 770 751 819 694 756 768 970 776 745 1045 1372
30 30 52 47 25 3 15 0 3 4 8 42 18 2 38 13 20 0 3 6 14 13 31 37 0 0 0 0 0 0 0 0 0 0 0 0 0 0 0 14 35 35 34 36 38 57 75 62 5 1 0 0 0 0 0 0 0 0 0 0 0 0 0 0 0 0 0 0 0 0 0 0 80 160 360 441 592 603 650 548 541 752 667 770 1023 1274
103 26 26 48 20 13 8 20 9 5 0 0 0 0 1 3 2 0 0 0 2 1 4 1 0 0 0 0 0 0 0 0 0 0 0 0 0 1 1 30 149 132 88 48 50 60 72 64 81 79 38 16 8 17 6 1 0 0 0 0 0 0 0 0 0 0 0 0 0 0 0 0 0 0 0 0 249 593 618 741 817 1041 1085 1109 1293 1170
32 77 33 24 18 4 56 72 26 3 8 3 1 0 0 1 7 17 5 0 0 1 2 1 0 0 0 0 0 0 0 0 0 0 0 0 0 0 2 9 18 28 87 49 1 16 40 55 86 77 45 0 0 39 36 0 0 0 0 0 0 0 0 0 0 0 0 0 0 0 0 0 0 0 0 0 0 1 59 470 579 794 960 1040 1184 1267
0 1 8 12 36 8 18 19 14 2 19 31 9 0 0 0 3 16 74 1 8 0 0 0 0 0 0 0 0 0 0 0 0 0 0 0 0 3 3 9 16 20 14 4 1 3 0 0 0 2 0 0 0 0 2 1 0 0 0 0 0 0 0 0 0 0 0 0 0 0 0 0 0 0 0 0 0 0 2 7 53 226 443 557 685 1112
1 4 10 2 11 9 9 4 3 6 7 8 7 0 0 0 8 21 13 13 2 0 0 0 0 0 0 0 0 0 0 0 0 0 0 0 0 0 0 0 0 4 5 4 1 0 0 0 0 0 0 0 0 0 0 0 0 0 0 0 0 3 2 2 1 2 1 0 0 0 0 0 0 0 0 0 0 0 0 0 0 7 23 188 471 423
8 14 28 0 12 8 1 1 5 0 1 0 0 1 0 0 1 4 10 0 0 0 0 0 0 0 0 0 1 1 0 0 0 0 0 0 0 0 0 0 1 2 1 2 0 0 0 0 0 0 0 2 2 0 4 2 2 2 0 0 0 1 1 5 7 1 0 0 0 0 0 0 0 0 0 0 0 0 0 0 0 0 0 4 3 30
0 2 0 1 0 4 0 0 0 0 0 0 0 0 0 0 0 6 0 2 0 0 0 2 1 0 0 0 0 0 0 0 0 0 0 0 0 0 0 0 0 0 0 0 0 0 0 0 0 0 0 0 0 0 0 0 0 0 0 0 0 0 0 0 0 0 0 0 0 0 0 0 0 0 0 0 0 0 0 0 0 0 0 0 0 1
0 0 8 4 0 2 2 3 1 0 0 0 0 0 0 0 0 6 0 0 0 0 0 1 0 0 0 0 0 0 0 0 0 0 0 0 0 0 0 0 0 0 0 0 0 0 0 0 0 0 0 0 0 0 0 0 0 0 0 0 0 0 0 0 0 0 0 0 0 0 0 0 0 0 0 0 0 0 0 0 0 0 0 0 0 3
1 0 2 0 0 0 0 0 1 2 0 0 0 0 0 0 0 0 0 0 0 0 3 4 3 0 2 0 0 0 1 0 0 0 0 0 0 0 0 0 0 0 0 0 0 0 0 0 0 0 0 0 0 0 0 0 0 0 0 0 0 0 0 0 0 0 0 0 0 0 0 0 0 0 0 0 0 0 0 0 0 0 0 0 0 0
0 0 2 0 0 0 0 0 4 1 0 0 0 0 0 0 1 1 0 0 0 0 1 0 0 0 1 1 0 0 0 0 0 0 0 0 0 0 0 0 0 0 0 0 0 0 0 0 0 0 0 0 0 0 0 0 0 0 0 0 0 0 0 0 0 0 0 0 0 0 0 0 0 0 0 0 0 0 0 0 0 0 0 0 0 0
0 3 1 2 0 0 3 1 1 0 1 0 0 0 2 3 1 1 0 0 0 0 0 0 0 1 0 1 1 0 0 0 0 0 0 0 0 0 0 0 0 0 0 0 0 0 0 0 0 0 0 0 0 0 0 0 0 0 0 0 0 0 0 0 0 0 0 0 0 0 0 0 0 0 0 0 0 0 0 0 0 0 0 0 0 0
0 0 1 4 2 0 0 1 0 0 2 1 0 0 0 0 0 0 0 0 0 0 0 0 0 0 0 0 0 0 0 0 0 0 0 0 0 0 0 0 0 0 0 0 0 0 0 0 0 0 0 0 0 0 0 0 0 0 0 0 0 0 0 0 0 0 0 0 0 0 0 0 0 0 0 0 0 0 0 0 0 0 0 0 0 0
0 0 1 8 1 1 16 0 1 2 0 0 0 0 0 0 0 0 0 0 0 0 0 0 0 1 3 2 0 0 0 0 0 0 0 0 0 0 0 0 0 0 0 0 0 0 0 0 0 0 0 0 0 0 0 0 0 1 0 0 0 0 0 0 0 0 0 0 0 0 0 0 0 0 0 0 0 0 0 0 0 0 0 0 0 0
1 0 0 2 2 0 4 6 4 3 2 1 1 2 1 0 0 0 0 0 0 0 0 0 0 0 1 3 4 1 0 0 0 0 0 0 0 0 0 0 0 0 0 0 0 0 0 0 0 0 0 0 0 0 0 0 0 0 0 0 0 1 0 0 0 0 0 0 0 0 0 0 0 0 0 0 0 0 0 0 0 0 0 0 0 0
0 0 2 1 2 1 0 0 0 0 3 1 2 1 2 0 0 0 0 0 0 0 0 0 0 0 0 0 0 0 0 0 0 0 0 0 0 0 0 0 0 0 0 0 0 0 0 0 0 0 0 1 1 1 1 0 1 1 1 1 0 0 0 0 0 1 1 1 1 1 0 0 1 1 1 0 0 0 0 0 0 0 0 0 0 0
1 2 0 1 7 2 1 1 1 3 0 0 0 1 1 2 0 0 1 2 1 0 2 0 0 0 0 0 0 0 0 0 0 0 0 0 0 0 0 0 0 0 0 0 0 0 0 0 0 1 1 1 0 2 1 2 3 1 1 1 1 1 1 0 1 1 0 0 0 2 0 0 0 0 1 1 0 0 0 0 0 0 0 0 0 0
0 0 1 0 0 5 1 1 6 1 7 0 0 0 1 2 3 4 3 3 7 3 3 2 0 5 2 0 0 0 0 0 0 0 0 0 0 0 0 0 0 0 0 0 0 0 0 0 0 0 0 1 1 2 2 2 3 2 2 3 2 2 1 0 1 1 0 1 0 0 0 0 1 1 1 1 1 1 0 0 0 0 0 0 0 0
Wind_Speed
nan nan nan nan nan nan nan nan nan nan nan nan nan nan nan nan nan nan nan nan nan nan nan nan nan nan nan nan nan nan nan nan nan nan nan nan nan nan 28 34 27 13 22 25 23 24 22 20 24 23 34 43 43 38 31 19 20 22 25 20 19 18 20 19 21 16 13 13 14 9 4 6 9 13 12 13 14 16 14 15 17 17 16 19 19 20
nan nan nan nan nan nan nan nan nan nan nan nan nan nan nan nan nan nan nan nan nan nan nan nan nan nan nan nan nan nan nan nan nan nan nan nan nan nan 29 36 25 18 22 23 27 24 24 27 31 41 42 43 36 27 23 25 29 32 30 28 24 14 16 16 15 13 15 11 9 4 3 10 11 12 13 13 14 16 16 16 17 16 19 17 17 17
nan nan nan nan nan nan nan nan nan nan nan nan nan nan nan nan nan nan nan nan nan nan nan nan nan nan nan nan nan nan nan nan nan nan nan nan nan nan 31 34 23 23 20 27 25 27 27 33 43 42 37 36 31 25 26 28 32 32 31 28 26 20 16 12 8 3 9 10 8 8 13 15 15 14 14 15 15 18 19 17 19 17 18 20 17 15
nan nan nan nan nan nan nan nan nan nan nan nan nan nan nan nan nan nan nan nan nan nan nan nan nan nan nan nan nan nan nan nan nan nan nan nan nan nan 27 31 28 20 25 31 31 32 40 46 35 32 33 31 29 28 28 30 28 24 24 23 22 17 17 19 21 17 18 25 23 24 20 17 17 19 19 18 16 18 20 19 19 17 16 20 18 16
nan nan nan nan nan nan nan nan nan nan nan nan nan nan nan nan nan nan nan nan nan nan nan nan nan nan nan nan nan nan nan nan nan nan nan nan nan nan 41 42 35 28 29 35 36 46 44 35 31 32 36 35 32 28 24 22 21 20 22 24 25 28 29 30 32 36 25 31 29 21 19 19 20 21 22 21 19 18 19 20 19 17 15 16 17 16
nan nan nan nan nan nan nan nan nan nan nan nan nan nan nan nan nan nan nan nan nan nan nan nan nan nan nan nan nan nan nan nan nan nan nan nan nan 29 44 44 40 32 36 43 51 48 39 31 34 34 35 34 28 24 18 21 18 22 22 26 27 29 31 30 30 34 24 25 27 22 22 23 22 23 23 23 22 20 19 21 18 18 18 16 13 15
nan nan nan nan nan nan nan nan nan nan nan nan nan nan nan nan nan nan nan nan nan nan nan nan nan nan nan nan nan nan nan nan nan nan nan nan nan 35 44 42 38 36 44 49 48 44 35 31 32 31 32 30 27 21 18 19 19 24 25 24 27 29 29 27 27 30 25 23 25 26 24 23 24 25 23 22 21 22 21 19 19 18 15 16 14 13
nan nan nan nan nan nan nan nan nan nan nan nan nan nan nan nan nan nan nan nan nan nan nan nan nan nan nan nan nan nan nan nan nan nan nan nan 34 48 46 38 39 38 47 50 44 39 36 32 27 32 35 31 28 24 19 17 15 19 20 19 20 22 24 23 23 27 25 27 27 29 27 25 27 26 23 23 21 21 22 19 17 17 16 16 16 13
nan nan nan nan nan nan nan nan nan nan nan nan nan nan nan nan nan nan nan nan nan nan nan nan nan nan nan nan nan nan nan nan nan nan nan nan 39 44 46 40 38 49 49 41 39 38 36 34 33 34 34 31 27 21 17 14 13 15 16 16 15 14 17 19 22 23 27 31 28 24 23 26 28 28 24 22 21 22 22 20 17 18 18 19 16 17
nan nan nan nan nan nan nan nan nan nan nan nan nan nan nan nan nan nan nan nan nan nan nan nan nan nan nan nan nan nan nan nan nan nan nan nan 39 39 38 40 48 48 42 39 41 41 37 33 35 34 35 28 21 16 16 15 16 17 15 15 16 16 17 22 22 26 31 30 26 21 23 28 29 26 24 23 22 22 20 21 nan 16 17 17 16 15
nan nan nan nan nan nan nan nan nan nan nan nan nan nan nan nan nan nan nan nan nan nan nan nan nan nan nan nan nan nan nan nan nan nan nan nan 35 38 37 35 45 48 40 39 39 37 34 32 33 35 29 19 15 14 15 16 16 16 15 14 16 17 19 20 22 28 29 28 27 27 30 29 27 25 24 22 22 20 20 19 18 16 17 15 17 16
nan nan nan nan nan nan nan nan nan nan nan nan nan nan nan nan nan nan nan nan nan nan nan nan nan nan nan nan nan nan nan 18 17 nan nan nan 30 34 33 28 42 48 43 40 36 31 31 30 29 28 21 14 14 15 16 17 18 18 17 16 18 17 18 16 17 21 23 25 30 30 29 26 24 22 22 21 21 20 19 19 17 19 16 16 14 15
nan nan nan nan nan nan nan nan nan nan nan nan nan nan nan nan nan nan nan nan nan nan nan nan nan nan nan 21 20 nan nan nan 31 35 nan nan 27 36 33 36 43 41 40 35 32 31 29 27 27 27 24 20 12 8 15 18 16 16 17 20 22 21 19 16 14 18 21 25 27 26 23 21 21 18 19 21 19 19 20 18 18 nan 16 15 14 15
nan nan nan nan nan nan nan nan nan nan nan nan nan nan nan nan nan nan nan nan nan nan nan nan nan nan nan nan 25 32 34 32 38 42 35 29 29 31 39 43 39 37 33 31 28 29 27 24 24 28 27 22 13 8 13 15 13 12 12 15 22 23 19 17 15 16 18 19 20 19 18 19 19 18 19 19 19 18 20 19 nan 15 16 14 16 16
nan nan nan nan nan nan nan nan nan nan nan nan nan nan nan nan nan nan nan nan nan nan nan nan nan 19 nan nan 28 32 27 26 30 37 34 28 24 25 40 46 42 35 32 24 24 26 22 18 23 25 24 20 13 14 12 12 11 11 13 14 18 19 18 19 18 16 16 16 15 13 13 15 18 19 16 18 20 20 22 20 16 15 14 15 15 15
nan nan nan nan nan nan nan nan nan nan nan nan nan nan nan nan nan nan 19 nan nan nan nan nan nan 28 28 30 nan 24 22 24 30 30 nan nan 27 26 31 42 37 31 27 20 19 20 19 21 21 23 22 15 10 12 13 11 12 13 15 17 18 19 19 21 20 17 16 14 13 11 11 14 18 19 19 22 23 23 22 20 17 15 15 16 15 13
nan nan nan nan nan nan nan nan nan nan nan nan nan nan nan nan nan nan nan nan nan nan nan nan 27 29 27 nan 21 18 nan nan nan nan 32 44 45 40 33 nan 37 30 28 21 18 19 21 20 18 16 14 12 9 11 13 14 13 16 16 17 19 18 17 19 19 17 15 14 13 15 16 19 20 20 22 24 25 25 23 20 17 15 16 16 14 nan
nan nan nan nan nan nan nan nan nan nan nan nan nan nan nan nan 13 nan nan nan nan nan nan nan nan nan nan nan nan nan nan 33 32 38 47 43 43 41 34 36 37 32 29 25 23 25 23 15 12 11 10 4 6 11 14 15 16 16 18 17 21 18 21 20 20 19 18 18 18 18 19 21 22 22 25 27 27 26 25 22 17 16 15 14 nan nan
nan nan nan nan nan nan nan nan nan nan nan nan nan nan nan nan nan nan nan nan nan nan nan nan nan nan nan 21 nan nan nan 29 29 33 39 39 39 38 35 35 37 35 32 28 27 26 22 15 11 11 4 6 9 9 12 20 21 20 19 20 22 22 22 22 20 20 21 20 20 19 20 20 21 22 26 28 28 25 23 20 16 14 15 nan nan nan
nan nan nan nan nan nan nan nan nan nan nan nan nan nan nan nan nan nan nan nan nan nan nan nan nan nan 24 25 29 36 nan nan 31 33 33 37 36 36 33 31 35 37 33 28 22 19 14 15 13 14 12 12 20 17 22 25 25 26 25 25 27 26 24 22 22 23 23 22 22 22 22 20 21 23 25 26 26 24 21 18 16 16 16 nan nan nan
nan nan nan 19 nan nan nan nan nan nan nan nan nan nan nan nan 27 nan 21 nan nan nan nan nan nan 26 26 25 31 33 28 30 33 33 33 34 33 29 28 28 30 33 31 28 23 18 13 20 26 28 29 27 31 27 29 30 29 29 27 28 30 28 26 24 23 23 22 22 24 24 23 22 21 20 20 23 24 nan nan nan 19 19 18 nan nan nan
nan nan nan nan nan nan nan nan nan nan nan nan nan nan nan nan nan nan nan nan nan nan nan nan nan 26 28 26 30 33 31 34 36 36 34 34 37 30 nan 26 27 26 22 18 25 24 29 32 34 37 37 38 37 35 35 31 31 30 29 29 30 29 26 26 25 24 24 24 25 25 25 23 20 17 17 20 22 nan nan nan nan 20 nan nan nan nan
34 nan nan nan nan nan nan nan nan nan nan nan nan nan nan nan nan nan nan nan nan nan nan 24 24 26 25 27 31 33 35 40 37 37 36 36 38 35 32 31 25 27 23 18 25 35 36 36 36 41 41 40 38 36 37 36 34 32 32 32 31 30 28 25 26 27 25 25 25 25 24 23 21 20 20 21 22 23 nan nan nan nan nan nan nan nan
31 nan nan nan nan nan nan nan nan nan nan nan nan nan nan nan nan nan nan nan nan nan nan nan nan 24 27 25 33 39 42 nan 38 35 37 35 35 35 33 34 37 37 37 38 38 38 39 41 42 41 40 42 41 39 39 37 36 34 32 32 31 30 28 27 26 25 25 24 24 24 23 22 21 21 23 23 21 21 22 22 22 nan nan nan nan nan
nan 30 nan nan nan nan nan nan nan nan nan nan nan nan nan nan nan nan nan nan nan nan nan nan 23 nan nan nan 32 34 39 42 38 nan nan 34 33 36 37 nan nan nan 38 42 42 44 45 44 45 43 44 43 42 41 39 38 36 34 33 31 30 28 25 25 26 22 24 24 23 22 22 23 23 22 22 22 21 20 21 23 22 19 nan nan nan nan
nan nan nan nan nan nan nan nan nan nan nan nan nan nan nan nan nan nan nan nan nan nan nan nan 29 31 nan 30 34 35 38 nan 40 41 nan nan nan nan 36 nan 38 nan 42 45 46 45 46 46 45 44 43 44 43 40 38 35 32 32 32 30 27 25 23 23 20 23 22 25 24 23 22 21 21 21 21 21 21 20 20 21 20 19 18 nan nan nan
nan nan nan 39 nan nan nan nan nan nan nan nan nan nan nan nan nan nan nan nan nan 30 30 33 31 32 31 35 35 38 36 37 nan 41 nan nan nan nan nan nan nan nan nan 47 45 45 46 47 49 47 43 45 42 39 36 33 31 30 30 30 27 24 21 18 16 18 20 20 19 17 17 17 17 18 19 19 19 19 19 19 19 19 17 nan nan nan
nan nan nan nan nan nan nan nan nan nan nan nan nan nan nan nan nan nan nan nan nan nan nan 27 35 38 34 35 36 38 40 nan nan nan nan nan nan nan nan nan nan nan nan nan nan 47 47 47 46 46 46 44 41 38 37 36 35 31 23 22 22 19 18 17 18 18 18 17 15 13 14 15 15 17 18 18 18 19 19 20 18 18 18 19 20 nan
nan nan nan nan nan nan nan nan nan nan nan nan nan nan nan nan nan 37 35 nan nan nan 33 31 34 38 35 37 36 40 40 nan nan nan nan nan nan nan nan nan nan nan nan nan nan nan nan 44 41 44 45 45 43 41 37 35 34 31 24 18 16 16 19 19 22 24 22 20 17 15 16 17 16 18 19 19 17 20 20 20 19 18 18 18 19 21
nan nan nan nan nan nan nan nan nan nan nan nan nan nan nan 37 41 36 37 42 43 41 42 35 38 37 34 nan nan nan nan nan nan nan nan nan nan nan nan nan nan nan nan nan nan nan nan nan nan nan nan 41 42 40 nan 34 33 31 28 26 23 19 21 20 20 20 25 23 20 19 19 20 20 19 20 19 20 20 21 21 19 19 20 20 22 22
nan nan nan nan nan nan nan nan nan nan nan nan nan nan nan nan nan nan nan 42 45 46 47 nan nan nan nan nan nan nan nan nan nan nan nan nan nan nan nan nan nan nan nan 47 nan nan nan nan nan nan nan nan nan nan nan 36 37 nan nan 34 32 33 32 30 27 24 19 16 18 21 22 24 23 23 22 22 24 25 24 23 23 22 22 23 24 24
nan nan nan nan nan nan nan nan nan nan nan nan nan nan nan nan nan nan 33 33 36 38 42 44 nan nan nan nan nan nan nan nan nan nan nan nan nan nan nan nan nan nan 44 44 43 43 44 44 nan nan nan nan nan nan nan nan nan nan nan nan nan nan 37 34 27 25 21 20 24 25 25 25 26 25 26 25 26 27 26 25 25 25 25 25 25 25
22 nan nan nan nan nan nan nan nan nan nan nan nan nan nan nan nan nan 42 40 37 36 36 34 nan nan nan nan nan nan nan nan nan nan nan nan nan nan nan nan nan nan 42 42 42 42 42 42 nan nan nan nan nan nan nan nan nan nan nan nan nan nan nan nan 35 33 34 33 29 29 27 30 30 31 28 29 29 30 29 27 27 27 27 27 27 27
nan nan nan nan nan nan nan nan nan nan nan nan 26 nan nan nan nan nan nan nan nan nan nan nan nan nan nan nan nan nan nan nan nan nan nan nan nan nan nan nan nan nan 42 43 43 44 43 nan nan nan nan nan nan nan nan nan nan nan nan nan nan nan nan nan nan nan nan nan 37 35 32 36 32 32 32 32 32 30 32 31 27 27 28 28 28 29
nan nan nan nan nan nan nan nan nan nan nan nan nan nan nan nan nan nan nan nan nan nan nan nan nan nan nan nan nan nan nan nan nan nan nan nan nan nan nan nan nan nan nan nan nan nan nan nan nan nan nan nan nan nan nan nan nan nan nan nan nan nan nan nan nan nan nan nan nan nan nan nan nan 40 35 38 36 34 33 32 32 33 33 31 32 35
24 nan nan nan nan nan nan nan nan nan nan nan nan nan nan nan nan nan nan nan nan nan nan nan nan nan nan nan nan nan nan nan nan nan nan nan nan nan nan nan 44 45 nan nan nan nan nan nan nan nan nan nan nan nan nan nan nan nan nan nan nan nan nan nan nan nan nan nan nan nan nan nan nan nan nan nan 40 38 38 38 40 40 41 39 37 36
nan nan nan nan nan nan nan nan nan nan nan nan nan nan nan nan nan nan nan nan nan nan nan nan nan nan nan nan nan nan nan nan nan nan nan nan nan nan nan nan nan nan nan nan nan nan nan nan nan nan nan nan nan nan nan nan nan nan nan nan nan nan nan nan nan nan nan nan nan nan nan nan nan nan nan nan nan nan nan 41 43 41 41 38 36 34
nan nan nan nan nan nan nan nan nan nan nan nan nan nan nan nan nan nan nan nan nan nan nan nan nan nan nan nan nan nan nan nan nan nan nan nan nan nan nan nan nan nan nan nan nan nan nan nan nan nan nan nan nan nan nan nan nan nan nan nan nan nan nan nan nan nan nan nan nan nan nan nan nan nan nan nan nan nan nan nan nan 40 41 38 36 33
nan nan nan nan nan nan nan nan nan nan nan nan nan nan nan nan nan nan nan nan nan nan nan nan nan nan nan nan nan nan nan nan nan nan nan nan nan nan nan nan nan nan nan nan nan nan nan nan nan nan nan nan nan nan nan nan nan nan nan nan nan nan nan nan nan nan nan nan nan nan nan nan nan nan nan nan nan nan nan nan nan nan nan 38 38 37
nan nan nan nan nan nan nan nan nan nan nan nan nan nan nan nan nan nan nan nan nan nan nan nan nan nan nan nan nan nan nan nan nan nan nan nan nan nan nan nan nan nan nan nan nan nan nan nan nan nan nan nan nan nan nan nan nan nan nan nan nan nan nan nan nan nan nan nan nan nan nan nan nan nan nan nan nan nan nan nan nan nan nan nan nan nan
nan nan nan nan nan nan nan nan nan nan nan nan nan nan nan nan nan nan nan nan nan nan nan nan nan nan nan nan nan nan nan nan nan nan nan nan nan nan nan nan nan nan nan nan nan nan nan nan nan nan nan nan nan nan nan nan nan nan nan nan nan nan nan nan nan nan nan nan nan nan nan nan nan nan nan nan nan nan nan nan nan nan nan nan nan nan
nan nan nan nan nan nan nan nan nan nan nan nan nan nan nan nan nan nan nan nan nan nan nan nan nan nan nan nan nan nan nan nan nan nan nan nan nan nan nan nan nan nan nan nan nan nan nan nan nan nan nan nan nan nan nan nan nan nan nan nan nan nan nan nan nan nan nan nan nan nan nan nan nan nan nan nan nan nan nan nan nan nan nan nan nan nan
nan nan nan nan nan nan nan nan nan nan nan nan nan nan nan nan nan nan nan nan nan nan nan nan nan nan nan nan nan nan nan nan nan nan nan nan nan nan nan nan nan nan nan nan nan nan nan nan nan nan nan nan nan nan nan nan nan nan nan nan nan nan nan nan nan nan nan nan nan nan nan nan nan nan nan nan nan nan nan nan nan nan nan nan nan nan
nan nan nan nan nan nan nan nan nan nan nan nan nan nan nan nan nan nan nan nan nan nan nan nan nan nan nan nan nan nan nan nan nan nan nan nan nan nan nan nan nan nan nan nan nan nan nan nan nan nan nan nan nan nan nan nan nan nan nan nan nan nan nan nan nan nan nan nan nan nan nan nan nan nan nan nan nan nan nan nan nan nan nan nan nan nan
nan nan nan nan nan nan nan nan nan nan nan nan nan nan nan nan nan nan nan nan nan nan nan nan nan nan nan nan nan nan nan nan nan nan nan nan nan nan nan nan nan nan nan nan nan nan nan nan nan nan nan nan nan nan nan nan nan nan nan nan nan nan nan nan nan nan nan nan nan nan nan nan nan nan nan nan nan nan nan nan nan nan nan nan nan nan
nan nan nan nan nan nan nan nan nan nan nan nan nan nan nan nan nan nan nan nan nan nan nan nan nan nan nan nan nan nan nan nan nan nan nan nan nan nan nan nan nan nan nan nan nan nan nan nan nan nan nan nan nan nan nan nan nan nan nan nan nan nan nan nan nan nan nan nan nan nan nan nan nan nan nan nan nan nan nan nan nan nan nan nan nan nan
nan nan nan nan nan nan nan nan nan nan nan nan nan nan nan nan nan nan nan nan nan nan nan nan nan nan nan nan nan nan nan nan nan nan nan nan nan nan nan nan nan nan nan nan nan nan nan nan nan nan nan nan nan nan nan nan nan nan nan nan nan nan nan nan nan nan nan nan nan nan nan nan nan nan nan nan nan nan nan nan nan nan nan nan nan nan
nan nan nan nan nan nan nan nan nan nan nan nan nan nan nan nan nan nan nan nan nan nan nan nan nan nan nan nan nan nan nan nan nan nan nan nan nan nan nan nan nan nan nan nan nan nan nan nan nan nan nan nan nan nan nan nan nan nan nan nan nan nan nan nan nan nan nan nan nan nan nan nan nan nan nan nan nan nan nan nan nan nan nan nan nan nan
nan nan nan nan nan nan nan nan nan nan nan nan nan nan nan nan nan nan nan nan nan nan nan nan nan nan nan nan nan nan nan nan nan nan nan nan nan nan nan nan nan nan nan nan nan nan nan nan nan nan nan nan nan nan nan nan nan nan nan nan nan nan nan nan nan nan nan nan nan nan nan nan nan nan nan nan nan nan nan nan nan nan nan nan nan nan
nan nan nan nan nan nan nan nan nan nan nan nan nan nan nan nan nan nan nan nan nan nan nan nan nan nan nan nan nan nan nan nan nan nan nan nan nan nan nan nan nan nan nan nan nan nan nan nan nan nan nan nan nan nan nan nan nan nan nan nan nan nan nan nan nan nan nan nan nan nan nan nan nan nan nan nan nan nan nan nan nan nan nan nan nan nan
nan nan nan nan nan nan nan nan nan nan nan nan nan nan nan nan nan nan nan nan nan nan nan nan nan nan nan nan nan nan nan nan nan nan nan nan nan nan nan nan nan nan nan nan nan nan nan nan nan nan nan nan nan nan nan nan nan nan nan nan nan nan nan nan nan nan nan nan nan nan nan nan nan nan nan nan nan nan nan nan nan nan nan nan nan nan
Wind_Direction
nan nan nan nan nan nan nan nan nan nan nan nan nan nan nan nan nan nan nan nan nan nan nan nan nan nan nan nan nan nan nan nan nan nan nan nan nan nan 260 261 270 290 276 284 288 286 284 280 269 259 248 246 245 247 259 258 259 257 248 248 243 217 215 222 232 238 235 222 221 204 230 271 266 267 276 283 286 290 285 291 298 298 288 287 300 302
nan nan nan nan nan nan nan nan nan nan nan nan nan nan nan nan nan nan nan nan nan nan nan nan nan nan nan nan nan nan nan nan nan nan nan nan nan nan 255 257 270 263 276 280 279 278 278 266 261 244 246 252 256 258 258 247 234 236 231 230 240 231 220 211 221 225 229 241 272 285 265 263 283 302 295 290 292 288 291 287 284 284 287 285 287 295
nan nan nan nan nan nan nan nan nan nan nan nan nan nan nan nan nan nan nan nan nan nan nan nan nan nan nan nan nan nan nan nan nan nan nan nan nan nan 265 270 266 268 279 280 280 274 269 262 251 253 257 272 280 278 267 257 249 249 245 246 248 243 256 245 215 205 272 267 245 230 249 271 274 271 276 287 295 295 288 285 283 279 283 288 282 279
nan nan nan nan nan nan nan nan nan nan nan nan nan nan nan nan nan nan nan nan nan nan nan nan nan nan nan nan nan nan nan nan nan nan nan nan nan nan 277 279 286 297 286 282 280 276 258 248 258 264 266 267 271 267 265 263 266 265 266 263 261 268 265 255 251 240 263 258 254 253 257 269 282 289 289 287 283 291 293 281 279 279 278 278 287 287
nan nan nan nan nan nan nan nan nan nan nan nan nan nan nan nan nan nan nan nan nan nan nan nan nan nan nan nan nan nan nan nan nan nan nan nan nan nan 263 262 268 266 265 265 268 256 255 262 262 262 266 267 264 269 274 271 263 257 260 249 245 241 235 233 233 246 229 250 252 262 275 285 294 298 301 296 290 282 284 289 284 282 280 278 278 281
nan nan nan nan nan nan nan nan nan nan nan nan nan nan nan nan nan nan nan nan nan nan nan nan nan nan nan nan nan nan nan nan nan nan nan nan nan 276 271 272 272 268 263 251 254 263 264 263 260 265 269 267 269 275 281 282 282 276 267 255 253 246 242 238 241 251 254 258 262 271 286 295 302 303 297 296 297 293 283 275 275 268 267 268 275 285
nan nan nan nan nan nan nan nan nan nan nan nan nan nan nan nan nan nan nan nan nan nan nan nan nan nan nan nan nan nan nan nan nan nan nan nan nan 274 265 268 276 274 262 257 263 268 272 266 264 266 268 268 267 270 272 273 270 271 271 270 264 255 246 248 249 248 245 253 263 268 277 281 283 283 282 283 279 279 280 272 268 269 266 277 272 279
nan nan nan nan nan nan nan nan nan nan nan nan nan nan nan nan nan nan nan nan nan nan nan nan nan nan nan nan nan nan nan nan nan nan nan nan 255 262 269 271 273 275 265 263 266 270 273 267 259 259 262 262 262 264 260 256 261 272 279 284 275 261 258 259 264 254 249 262 267 258 258 268 274 277 279 275 271 270 267 265 265 277 276 270 279 281
nan nan nan nan nan nan nan nan nan nan nan nan nan nan nan nan nan nan nan nan nan nan nan nan nan nan nan nan nan nan nan nan nan nan nan nan 264 264 270 275 271 260 262 265 265 266 266 257 247 254 261 256 260 267 271 268 272 283 291 294 293 285 276 271 269 264 262 269 269 261 268 283 282 277 276 274 268 262 260 263 256 250 258 258 256 270
nan nan nan nan nan nan nan nan nan nan nan nan nan nan nan nan nan nan nan nan nan nan nan nan nan nan nan nan nan nan nan nan nan nan nan nan 267 270 272 276 271 269 265 262 265 267 260 248 250 259 261 261 261 272 281 281 282 292 296 299 301 301 284 275 267 262 263 261 254 262 287 288 277 270 267 267 268 266 268 261 nan 259 257 268 270 265
nan nan nan nan nan nan nan nan nan nan nan nan nan nan nan nan nan nan nan nan nan nan nan nan nan nan nan nan nan nan nan nan nan nan nan nan 269 274 275 275 273 271 271 265 260 258 254 253 262 266 262 269 288 294 293 287 292 290 289 291 289 285 285 283 278 269 263 254 253 275 290 283 270 268 271 268 266 267 263 266 263 260 264 262 262 264
nan nan nan nan nan nan nan nan nan nan nan nan nan nan nan nan nan nan nan nan nan nan nan nan nan nan nan nan nan nan nan 225 213 nan nan nan 273 275 270 268 268 269 271 272 264 260 259 256 266 269 267 272 288 288 293 293 299 304 302 301 299 300 296 293 288 280 270 261 266 278 280 270 264 264 268 270 265 265 265 265 266 261 264 267 268 269
nan nan nan nan nan nan nan nan nan nan nan nan nan nan nan nan nan nan nan nan nan nan nan nan nan nan nan 229 212 nan nan nan 221 206 nan nan 264 266 267 253 261 271 281 279 272 273 271 267 268 273 281 285 282 297 309 306 301 305 314 317 315 316 314 308 302 289 280 274 279 280 272 263 257 255 261 263 262 261 265 268 269 nan 274 275 279 276
nan nan nan nan nan nan nan nan nan nan nan nan nan nan nan nan nan nan nan nan nan nan nan nan nan nan nan nan 236 218 227 226 222 228 231 239 243 254 267 265 266 269 269 266 265 265 257 269 277 281 285 286 297 337 326 318 304 299 304 308 307 310 310 305 302 298 292 286 283 274 262 257 256 247 249 258 259 260 264 263 nan 275 279 282 281 282
nan nan nan nan nan nan nan nan nan nan nan nan nan nan nan nan nan nan nan nan nan nan nan nan nan 225 nan nan 240 236 236 238 232 233 241 255 255 256 266 265 265 262 262 262 264 270 272 277 287 290 290 289 313 335 330 312 297 282 294 292 293 296 302 300 302 305 304 294 283 264 251 257 257 256 258 259 260 259 262 265 270 268 275 282 285 284
nan nan nan nan nan nan nan nan nan nan nan nan nan nan nan nan nan nan 215 nan nan nan nan nan nan 218 230 226 nan 236 238 233 239 236 nan nan 257 258 260 270 272 271 271 270 269 278 280 280 290 302 305 293 302 326 323 310 291 282 286 289 290 296 296 296 300 306 310 300 277 258 256 260 259 258 257 258 261 259 262 265 266 270 277 280 280 286
nan nan nan nan nan nan nan nan nan nan nan nan nan nan nan nan nan nan nan nan nan nan nan nan 227 240 234 nan 241 242 nan nan nan nan 235 237 240 246 255 nan 278 282 286 289 288 283 287 277 288 294 300 298 301 305 309 302 292 291 282 277 283 287 286 289 296 302 301 287 269 265 270 269 262 256 254 258 260 261 261 261 262 268 274 278 284 nan
nan nan nan nan nan nan nan nan nan nan nan nan nan nan nan nan 244 nan nan nan nan nan nan nan nan nan nan nan nan nan nan 238 232 229 233 237 240 241 241 255 271 278 284 285 273 272 278 278 292 292 293 275 308 296 292 299 293 286 283 275 281 286 291 293 297 298 291 284 278 278 278 274 269 261 256 257 259 258 258 256 254 261 270 279 nan nan
nan nan nan nan nan nan nan nan nan nan nan nan nan nan nan nan nan nan nan nan nan nan nan nan nan nan nan 236 nan nan nan 254 252 244 237 237 239 242 239 238 259 264 259 262 265 261 262 266 251 261 270 336 287 236 290 295 291 285 286 287 280 287 289 291 290 288 284 282 282 284 282 282 282 274 263 260 260 259 262 261 259 263 268 nan nan nan
nan nan nan nan nan nan nan nan nan nan nan nan nan nan nan nan nan nan nan nan nan nan nan nan nan nan 223 223 242 244 nan nan 254 254 246 239 235 235 239 241 247 259 264 264 255 248 252 265 288 309 323 340 311 322 297 294 291 289 287 287 286 283 284 284 283 283 282 279 281 282 278 279 285 280 268 259 258 261 264 267 266 266 270 nan nan nan
nan nan nan 190 nan nan nan nan nan nan nan nan nan nan nan nan 222 nan 222 nan nan nan nan nan nan 239 234 222 243 256 258 260 261 260 258 249 242 233 233 233 237 248 264 275 269 276 297 311 318 319 319 314 304 298 293 290 286 285 286 287 288 286 283 281 277 274 269 272 277 279 276 278 286 286 269 258 259 nan nan nan 269 270 273 nan nan nan
nan nan nan nan nan nan nan nan nan nan nan nan nan nan nan nan nan nan nan nan nan nan nan nan nan 239 239 228 249 250 251 253 256 266 265 270 271 265 nan 236 244 246 238 240 294 300 303 301 297 292 290 287 288 283 281 284 289 290 290 287 283 280 278 275 271 270 272 274 278 277 276 278 283 287 275 265 263 nan nan nan nan 271 nan nan nan nan
224 nan nan nan nan nan nan nan nan nan nan nan nan nan nan nan nan nan nan nan nan nan nan 232 236 238 231 226 238 254 256 253 248 246 255 259 259 262 271 282 279 277 277 280 276 284 283 279 277 278 277 280 284 286 287 287 289 290 290 286 281 278 276 272 270 272 276 278 278 276 275 275 280 284 280 273 269 271 nan nan nan nan nan nan nan nan
221 nan nan nan nan nan nan nan nan nan nan nan nan nan nan nan nan nan nan nan nan nan nan nan nan 242 239 223 243 251 258 nan 254 252 255 253 257 258 255 253 260 265 269 267 268 274 273 274 269 267 269 272 274 277 280 283 284 284 282 281 280 278 277 275 273 276 280 279 277 278 279 278 278 281 282 278 273 271 265 263 262 nan nan nan nan nan
nan 213 nan nan nan nan nan nan nan nan nan nan nan nan nan nan nan nan nan nan nan nan nan nan 238 nan nan nan 251 256 261 263 267 nan nan 262 253 247 245 nan nan nan 263 266 267 267 267 267 270 272 274 273 271 274 278 279 280 280 276 279 282 279 280 277 276 280 285 283 279 278 277 280 283 281 280 278 274 268 264 263 263 261 nan nan nan nan
nan nan nan nan nan nan nan nan nan nan nan nan nan nan nan nan nan nan nan nan nan nan nan nan 237 242 nan 252 253 254 257 nan 258 265 nan nan nan nan 248 nan 246 nan 257 261 262 263 266 269 267 265 269 274 275 275 276 279 280 281 282 279 276 280 275 273 275 281 278 276 275 276 280 281 279 280 277 273 270 266 261 265 266 264 263 nan nan nan
nan nan nan 222 nan nan nan nan nan nan nan nan nan nan nan nan nan nan nan nan nan 221 230 231 255 250 251 253 251 246 250 255 nan 256 nan nan nan nan nan nan nan nan nan 258 260 263 265 267 272 274 274 275 273 272 273 273 270 268 270 275 275 271 277 280 279 277 278 281 281 284 286 284 282 274 270 266 262 263 262 260 260 266 264 nan nan nan
nan nan nan nan nan nan nan nan nan nan nan nan nan nan nan nan nan nan nan nan nan nan nan 227 253 254 250 254 256 255 253 nan nan nan nan nan nan nan nan nan nan nan nan nan nan 258 260 263 266 270 270 270 270 269 268 264 262 262 257 244 243 260 269 275 274 273 279 285 284 288 285 280 276 272 268 266 266 270 269 268 267 264 267 268 272 nan
nan nan nan nan nan nan nan nan nan nan nan nan nan nan nan nan nan 219 219 nan nan nan 241 242 254 256 254 251 251 249 253 nan nan nan nan nan nan nan nan nan nan nan nan nan nan nan nan 249 258 264 265 266 266 262 261 265 269 273 270 249 223 210 226 245 264 272 273 275 276 271 268 260 261 260 264 270 265 266 265 265 268 269 268 269 271 272
nan nan nan nan nan nan nan nan nan nan nan nan nan nan nan 226 226 226 227 226 224 241 254 252 253 252 253 nan nan nan nan nan nan nan nan nan nan nan nan nan nan nan nan nan nan nan nan nan nan nan nan 260 268 271 nan 272 275 277 273 264 259 258 259 257 263 262 256 252 248 254 256 255 253 253 250 255 259 262 263 263 264 269 271 271 270 269
nan nan nan nan nan nan nan nan nan nan nan nan nan nan nan nan nan nan nan 240 243 241 246 nan nan nan nan nan nan nan nan nan nan nan nan nan nan nan nan nan nan nan nan 244 nan nan nan nan nan nan nan nan nan nan nan 270 273 nan nan 273 269 274 279 278 264 248 237 242 256 256 250 252 253 256 258 256 255 256 261 264 264 264 266 267 268 270
nan nan nan nan nan nan nan nan nan nan nan nan nan nan nan nan nan nan 242 241 251 252 253 253 nan nan nan nan nan nan nan nan nan nan nan nan nan nan nan nan nan nan 243 244 245 245 244 243 nan nan nan nan nan nan nan nan nan nan nan nan nan nan 275 272 271 273 272 270 259 257 261 261 263 257 252 255 264 266 262 262 264 261 259 261 264 266
228 nan nan nan nan nan nan nan nan nan nan nan nan nan nan nan nan nan 250 255 254 257 254 249 nan nan nan nan nan nan nan nan nan nan nan nan nan nan nan nan nan nan 237 238 239 241 242 243 nan nan nan nan nan nan nan nan nan nan nan nan nan nan nan nan 274 270 265 260 256 253 258 259 253 253 258 261 258 259 260 257 259 260 260 259 261 262
nan nan nan nan nan nan nan nan nan nan nan nan 235 nan nan nan nan nan nan nan nan nan nan nan nan nan nan nan nan nan nan nan nan nan nan nan nan nan nan nan nan nan 235 236 238 238 239 nan nan nan nan nan nan nan nan nan nan nan nan nan nan nan nan nan nan nan nan nan 262 262 257 261 262 259 256 259 261 258 259 260 260 266 269 271 272 275
nan nan nan nan nan nan nan nan nan nan nan nan nan nan nan nan nan nan nan nan nan nan nan nan nan nan nan nan nan nan nan nan nan nan nan nan nan nan nan nan nan nan nan nan nan nan nan nan nan nan nan nan nan nan nan nan nan nan nan nan nan nan nan nan nan nan nan nan nan nan nan nan nan 264 266 262 260 263 270 280 283 283 285 284 285 285
258 nan nan nan nan nan nan nan nan nan nan nan nan nan nan nan nan nan nan nan nan nan nan nan nan nan nan nan nan nan nan nan nan nan nan nan nan nan nan nan 240 239 nan nan nan nan nan nan nan nan nan nan nan nan nan nan nan nan nan nan nan nan nan nan nan nan nan nan nan nan nan nan nan nan nan nan 269 272 272 274 277 279 279 280 280 281
nan nan nan nan nan nan nan nan nan nan nan nan nan nan nan nan nan nan nan nan nan nan nan nan nan nan nan nan nan nan nan nan nan nan nan nan nan nan nan nan nan nan nan nan nan nan nan nan nan nan nan nan nan nan nan nan nan nan nan nan nan nan nan nan nan nan nan nan nan nan nan nan nan nan nan nan nan nan nan 272 278 279 279 277 277 274
nan nan nan nan nan nan nan nan nan nan nan nan nan nan nan nan nan nan nan nan nan nan nan nan nan nan nan nan nan nan nan nan nan nan nan nan nan nan nan nan nan nan nan nan nan nan nan nan nan nan nan nan nan nan nan nan nan nan nan nan nan nan nan nan nan nan nan nan nan nan nan nan nan nan nan nan nan nan nan nan nan 271 275 277 275 274
nan nan nan nan nan nan nan nan nan nan nan nan nan nan nan nan nan nan nan nan nan nan nan nan nan nan nan nan nan nan nan nan nan nan nan nan nan nan nan nan nan nan nan nan nan nan nan nan nan nan nan nan nan nan nan nan nan nan nan nan nan nan nan nan nan nan nan nan nan nan nan nan nan nan nan nan nan nan nan nan nan nan nan 269 274 275
nan nan nan nan nan nan nan nan nan nan nan nan nan nan nan nan nan nan nan nan nan nan nan nan nan nan nan nan nan nan nan nan nan nan nan nan nan nan nan nan nan nan nan nan nan nan nan nan nan nan nan nan nan nan nan nan nan nan nan nan nan nan nan nan nan nan nan nan nan nan nan nan nan nan nan nan nan nan nan nan nan nan nan nan nan nan
nan nan nan nan nan nan nan nan nan nan nan nan nan nan nan nan nan nan nan nan nan nan nan nan nan nan nan nan nan nan nan nan nan nan nan nan nan nan nan nan nan nan nan nan nan nan nan nan nan nan nan nan nan nan nan nan nan nan nan nan nan nan nan nan nan nan nan nan nan nan nan nan nan nan nan nan nan nan nan nan nan nan nan nan nan nan
nan nan nan nan nan nan nan nan nan nan nan nan nan nan nan nan nan nan nan nan nan nan nan nan nan nan nan nan nan nan nan nan nan nan nan nan nan nan nan nan nan nan nan nan nan nan nan nan nan nan nan nan nan nan nan nan nan nan nan nan nan nan nan nan nan nan nan nan nan nan nan nan nan nan nan nan nan nan nan nan nan nan nan nan nan nan
nan nan nan nan nan nan nan nan nan nan nan nan nan nan nan nan nan nan nan nan nan nan nan nan nan nan nan nan nan nan nan nan nan nan nan nan nan nan nan nan nan nan nan nan nan nan nan nan nan nan nan nan nan nan nan nan nan nan nan nan nan nan nan nan nan nan nan nan nan nan nan nan nan nan nan nan nan nan nan nan nan nan nan nan nan nan
nan nan nan nan nan nan nan nan nan nan nan nan nan nan nan nan nan nan nan nan nan nan nan nan nan nan nan nan nan nan nan nan nan nan nan nan nan nan nan nan nan nan nan nan nan nan nan nan nan nan nan nan nan nan nan nan nan nan nan nan nan nan nan nan nan nan nan nan nan nan nan nan nan nan nan nan nan nan nan nan nan nan nan nan nan nan
nan nan nan nan nan nan nan nan nan nan nan nan nan nan nan nan nan nan nan nan nan nan nan nan nan nan nan nan nan nan nan nan nan nan nan nan nan nan nan nan nan nan nan nan nan nan nan nan nan nan nan nan nan nan nan nan nan nan nan nan nan nan nan nan nan nan nan nan nan nan nan nan nan nan nan nan nan nan nan nan nan nan nan nan nan nan
nan nan nan nan nan nan nan nan nan nan nan nan nan nan nan nan nan nan nan nan nan nan nan nan nan nan nan nan nan nan nan nan nan nan nan nan nan nan nan nan nan nan nan nan nan nan nan nan nan nan nan nan nan nan nan nan nan nan nan nan nan nan nan nan nan nan nan nan nan nan nan nan nan nan nan nan nan nan nan nan nan nan nan nan nan nan
nan nan nan nan nan nan nan nan nan nan nan nan nan nan nan nan nan nan nan nan nan nan nan nan nan nan nan nan nan nan nan nan nan nan nan nan nan nan nan nan nan nan nan nan nan nan nan nan nan nan nan nan nan nan nan nan nan nan nan nan nan nan nan nan nan nan nan nan nan nan nan nan nan nan nan nan nan nan nan nan nan nan nan nan nan nan
nan nan nan nan nan nan nan nan nan nan nan nan nan nan nan nan nan nan nan nan nan nan nan nan nan nan nan nan nan nan nan nan nan nan nan nan nan nan nan nan nan nan nan nan nan nan nan nan nan nan nan nan nan nan nan nan nan nan nan nan nan nan nan nan nan nan nan nan nan nan nan nan nan nan nan nan nan nan nan nan nan nan nan nan nan nan
nan nan nan nan nan nan nan nan nan nan nan nan nan nan nan nan nan nan nan nan nan nan nan nan nan nan nan nan nan nan nan nan nan nan nan nan nan nan nan nan nan nan nan nan nan nan nan nan nan nan nan nan nan nan nan nan nan nan nan nan nan nan nan nan nan nan nan nan nan nan nan nan nan nan nan nan nan nan nan nan nan nan nan nan nan nan
nan nan nan nan nan nan nan nan nan nan nan nan nan nan nan nan nan nan nan nan nan nan nan nan nan nan nan nan nan nan nan nan nan nan nan nan nan nan nan nan nan nan nan nan nan nan nan nan nan nan nan nan nan nan nan nan nan nan nan nan nan nan nan nan nan nan nan nan nan nan nan nan nan nan nan nan nan nan nan nan nan nan nan nan nan nan
nan nan nan nan nan nan nan nan nan nan nan nan nan nan nan nan nan nan nan nan nan nan nan nan nan nan nan nan nan nan nan nan nan nan nan nan nan nan nan nan nan nan nan nan nan nan nan nan nan nan nan nan nan nan nan nan nan nan nan nan nan nan nan nan nan nan nan nan nan nan nan nan nan nan nan nan nan nan nan nan nan nan nan nan nan nan